SCP
0 0 0 0 0 0 0 0 0 0 0 0 0 0 0 0 0 0 0 0 0 0 0 0 0 0 0 0 0 0 0 0 0 0 0 0 0 0 0 0 0 0 0
0 0 0 0 0 0 0 0 0 0 0 0 0 -0 -0 0 0 0 0 0 0 0 0 0 0 0 0 0 0 0 0 0 0 0 0 0 0 0 0 0 0 0 0
0 0 0 0 0 0 0 0 0 0 0 0 0 0 0 0 0 0 0 0 0 0 0 0 0 0 0 0 0 0 0 0 0 0 0 0 0 0 0 0 0 0 0
0 0 0 0 0 0 0 0 0 0 0 0 0 0 0 0 0 0 0 0 0 0 0 0 0 0 0 0 0 0 0 0 0 0 0 0 0 0 0 0 0 0 0
0 0 0 0 0 0 0 0 0 0 0 0 0 0 0 0 0 0 0 0 0 0 0 0 0 0 0 0 0 0 0 0 0 0 0 0 0 0 0 0 0 0 0
0 0 0 0 0 0 0 0 0 0 0 0 0 0 0 0 0 0 0 0 0 0 0 0 0 0 0 0 0 0 0 0 0 0 0 0 0 0 0 0 0 0 0
0 0 0 0 0 0 0 0 0 0 0 0 0 0 0 0 0 0 0 0 0 0 0 -0 0 -0 -0 0 -0 0 0 0 -0 0 0 0 0 0 0 0 0 0 0
0 0 0 0 0 0 0 0 0 0 0 0 0 0 0 0 0 0 0 0 0 -0 -0 -0 -0 -0 -0 0 -0 -0 0 0 0 0 0 0 0 0 0 0 0 0 0
0 0 0 0 0 0 0 0 0 0 0 0 0 0 0 0 0 0 0 0 0 0 -0 -0 -0 0 -0 0 0 -0 0 0 0 0 0 0 0 0 0 0 0 0 0
0 0 0 0 0 0 0 0 0 0 0 0 0 0 0 0 0 0 0 0 0 -0 -0 0 0 -0 -0 -0 -0 0 0 0 0 0 0 0 0 0 0 0 0 0 0
0 0 0 0 0 0 0 0 0 0 0 0 0 0 0 0 0 0 0 0 0 0 -0 -0 -0 -0 0 -0 -0 0 0 0 0 0 0 0 0 0 0 0 0 0 0
0 0 0 0 0 0 0 0 0 0 0 0 0 0 0 0 0 0 0 0 0 0 -0 -0 -0 0 -0 -0 0 0 0 0 0 0 0 0 0 0 0 0 0 0 0
0 0 0 0 0 0 0 0 0 0 0 0 0 0 0 0 0 0 0 0 0 0 0 0 0 0 0 0 0 0 0 0 0 0 0 0 0 0 0 0 0 0 0
0 0 0 0 0 0 0 0 0 0 0 0 0 0 0 0 0 0 0 0 0 0 0 0 0 0 0 0 0 0 0 0 0 0 0 0 0 0 0 0 0 0 0
0 0 0 0 0 0 0 0 0 0 0 0 0 0 0 0 0 0 0 0 0 0 0 0 0 0 0 0 0 0 0 0 0 0 0 0 0 0 0 0 0 0 0
0 0 0 0 0 0 0 0 0 0 0 0 0 0 0 0 0 0 0 0 0 0 0 0 0 0 0 0 0 0 0 0 0 0 0 0 0 0 0 0 0 0 0
0 0 0 0 0 0 0 0 0 0 0 0 0 0 0 0 0 0 0 0 0 0 0 0 0 0 0 0 0 0 0 0 0 0 0 0 0 0 0 0 0 0 0
0 0 0 0 0 0 0 0 0 0 0 0 0 0 0 0 0 0 0 0 0 0 0 0 0 0 0 0 0 0 0 0 0 0 0 0 0 0 0 0 0 0 0
0 0 0 0 0 0 0 0 0 0 0 0 0 0 0 0 0 0 0 0 0 0 0 0 0 0 0 0 0 0 0 0 0 0 0 0 0 0 0 0 0 0 0
0 0 0 0 0 0 0 0 0 0 0 0 0 0 0 0 0 0 0 0 0 0 -0 0 0 0 0 0 0 0 0 0 0 0 0 0 0 0 0 0 0 0 0
0 0 0 0 0 0 0 0 0 0 0 0 0 0 0 0 0 0 0 0 0 0 0 0 0 0 0 0 0 0 0 0 0 0 0 0 0 0 0 0 0 0 0
0 0 0 0 0 0 0 0 0 0 0 0 0 0 0 0 0 0 0 0 0 0 0 0 0 0 0 0 0 0 0 0 0 0 0 0 0 0 0 0 0 0 0
0 0 0 0 0 0 0 0 0 0 0 0 0 0 0 0 0 0 0 0 0 0 0 0 0 0 0 0 0 0 0 0 0 0 0 0 0 0 0 0 0 0 0
0 0 0 0 0 0 0 0 0 0 0 0 0 0 0 0 0 -0 -0 0 0 0 0 0 0 0 0 0 0 0 0 0 0 0 0 0 0 0 0 0 0 0 0
0 0 0 0 0 0 0 0 0 -0 0 0 0 0 0 0 0 0 0 0 0 0 0 0 0 0 0 0 0 0 0 0 0 0 0 0 0 0 0 0 0 0 0
0 0 0 0 0 0 0 0 0 0 -0 0 0 0 0 0 0 0 0 0 0 0 0 0 0 0 0 0 0 0 0 0 0 0 0 0 0 0 0 0 0 0 0
Wind_Speed_500mb
30 28 26 25 24 23 22 22 19 21 25 26 26 26 18 21 18 18 34 22 36 26 22 22 18 21 21 24 30 38 23 30 31 31 28 31 5 20 14 22 30 30 26
34 30 27 25 22 21 20 18 15 19 26 27 27 26 21 17 12 21 19 25 20 27 33 29 26 18 17 28 26 25 26 22 35 41 17 18 9 39 24 27 22 17 20
37 32 29 25 22 20 16 14 15 20 27 29 28 23 14 11 16 19 23 26 27 31 31 21 19 23 12 19 20 24 27 23 22 31 31 18 19 32 19 36 35 31 26
38 35 31 26 23 20 16 11 12 18 25 31 28 21 14 15 17 14 22 22 32 28 19 13 21 18 19 22 23 20 20 25 28 23 27 23 23 24 27 34 31 32 34
40 36 32 28 24 20 15 9 11 19 26 28 30 22 20 17 16 23 26 19 19 22 21 14 19 23 19 25 30 28 34 23 17 32 28 31 23 25 27 31 38 37 35
45 38 33 32 26 20 16 11 9 16 22 21 24 25 22 21 26 29 31 30 27 22 21 22 28 29 23 24 28 26 34 33 33 20 21 26 30 34 36 36 38 42 41
50 45 44 35 29 24 17 10 7 10 16 14 19 18 21 20 24 31 39 37 34 29 27 36 33 32 26 27 26 18 25 23 31 33 23 40 24 32 30 37 43 45 40
48 47 46 35 30 26 17 11 7 9 11 2 12 17 15 19 24 35 38 35 35 40 34 30 30 25 27 28 24 30 28 30 27 39 28 37 21 33 30 30 36 43 43
46 43 44 37 35 27 19 14 9 9 10 8 12 19 18 27 35 33 28 25 24 24 25 24 23 26 33 25 26 31 31 30 27 29 32 32 29 31 36 29 37 36 37
41 40 43 38 38 28 24 17 14 12 11 4 11 15 18 21 23 22 18 22 21 20 19 19 21 22 23 26 25 19 28 29 29 30 31 29 30 28 37 32 42 35 38
45 44 42 38 30 28 21 16 12 12 9 5 11 15 14 11 14 17 18 21 23 23 20 20 19 22 24 23 23 25 24 27 26 29 31 28 27 32 38 38 37 38 44
43 48 42 40 32 29 24 19 16 13 13 6 12 15 15 11 13 15 15 17 19 23 21 19 20 17 12 13 11 17 24 27 28 27 28 37 37 32 40 38 37 38 44
41 52 45 41 34 31 25 18 15 15 13 11 14 12 10 6 7 8 8 10 15 18 23 18 18 18 21 22 16 12 19 25 26 32 34 31 28 37 44 47 45 42 43
47 50 48 39 36 33 26 19 18 16 14 15 13 10 7 4 5 7 8 9 8 14 17 17 15 13 24 25 27 13 22 24 34 27 28 31 31 39 46 56 48 36 43
45 48 47 41 38 32 28 21 19 18 17 15 15 11 9 5 3 5 7 8 9 9 13 11 12 13 21 28 27 16 16 20 25 24 28 32 21 47 53 58 45 34 46
42 45 41 42 39 35 28 24 21 19 18 16 13 10 8 4 3 5 7 7 7 11 9 8 9 8 19 25 25 18 16 18 26 25 26 29 30 44 59 52 43 32 41
44 46 42 43 39 34 29 26 22 20 20 16 15 7 7 7 5 3 8 7 5 6 8 7 7 11 22 30 26 11 20 24 29 31 30 28 30 41 57 58 48 30 39
43 44 41 41 37 33 28 24 22 21 21 18 15 11 8 7 5 2 6 4 4 6 9 5 6 7 17 24 30 26 21 24 34 30 38 27 34 41 57 61 59 56 47
41 41 40 40 36 33 28 24 22 22 21 20 15 10 8 7 5 3 2 3 4 8 5 10 10 15 15 16 20 31 28 22 34 30 35 28 35 49 56 63 64 59 54
38 42 40 39 37 32 29 26 23 25 23 19 15 11 11 9 6 4 3 7 8 9 8 20 17 26 27 24 24 23 34 21 36 38 44 30 41 62 65 55 59 60 64
41 40 39 38 33 30 26 25 25 26 25 16 15 14 11 10 6 1 5 10 12 16 20 25 28 35 36 31 34 23 33 25 36 53 36 46 46 65 52 53 52 55 50
41 37 38 35 32 25 23 25 28 30 26 18 17 14 11 7 10 3 12 14 23 29 34 41 39 39 38 31 29 28 31 33 41 45 40 42 58 59 54 31 53 39 44
38 34 33 30 26 24 22 27 30 30 25 20 17 13 9 8 9 13 19 22 25 33 36 33 30 33 32 38 24 31 40 45 50 38 42 55 54 43 33 38 44 48 57
36 32 28 26 28 22 26 29 27 33 20 19 16 12 11 10 12 15 11 21 18 23 22 28 30 28 27 26 34 47 50 46 39 46 53 44 50 27 29 44 42 45 46
31 30 28 29 22 26 31 28 34 27 20 18 14 12 14 15 12 15 12 19 21 24 29 30 25 23 23 27 37 44 46 47 45 49 40 38 40 34 48 49 48 38 42
31 29 27 26 14 31 27 30 29 21 22 16 13 13 13 11 20 19 20 26 31 28 33 33 28 21 21 29 38 41 44 40 29 34 38 35 40 44 47 48 52 33 47
Wind_Direction_500mb
153 147 140 131 125 127 122 113 94 59 40 28 16 8 13 349 336 347 331 338 346 352 350 323 324 325 348 330 320 333 336 9 330 328 318 9 79 81 19 356 357 346 350
159 157 151 142 134 132 127 117 79 47 31 25 10 15 23 2 355 334 343 320 323 327 328 331 343 340 349 352 348 1 11 11 13 3 2 342 14 61 47 50 53 24 12
170 167 162 154 142 133 129 110 64 29 23 23 6 23 35 18 349 4 315 330 322 325 340 1 16 28 6 7 16 9 22 14 26 29 25 4 4 345 356 24 22 7 353
174 174 170 163 156 143 132 108 58 40 18 12 10 20 32 15 355 337 328 341 342 341 352 17 20 16 16 27 18 12 27 21 23 31 34 27 20 16 342 354 356 9 2
176 178 175 171 164 152 141 103 46 28 20 15 356 11 28 22 6 10 14 346 7 10 11 14 40 29 24 27 28 33 28 21 12 25 28 15 15 10 6 351 355 353 349
170 176 179 168 167 164 143 113 43 26 24 24 348 26 41 41 33 33 34 31 38 39 55 43 41 40 45 42 37 33 28 26 25 43 23 6 10 7 0 351 350 350 347
168 174 168 169 172 168 154 131 105 46 26 38 352 52 52 41 42 47 48 43 47 49 51 53 47 41 31 38 24 49 33 41 14 25 43 26 20 5 360 358 350 344 341
178 175 171 172 177 168 163 147 117 65 48 106 13 62 59 50 65 54 51 45 44 49 46 44 38 30 24 51 28 50 47 39 28 21 32 27 14 15 6 358 348 342 340
172 172 167 175 176 167 167 160 135 87 90 20 26 73 70 74 69 57 48 37 34 35 28 31 32 25 28 57 48 30 37 35 33 15 17 21 6 11 8 349 354 4 346
168 174 168 172 169 163 166 166 138 118 128 75 78 85 64 46 42 50 46 34 37 33 31 31 30 28 27 24 29 21 21 15 13 11 8 4 3 360 352 360 352 342 349
172 172 167 169 165 166 170 161 140 132 129 85 92 99 80 71 71 54 48 40 28 28 29 25 29 26 16 21 14 13 5 6 7 5 1 359 349 346 335 334 341 343 338
172 167 169 170 173 178 171 165 162 152 156 129 115 91 87 73 61 54 42 33 26 16 27 27 28 14 3 348 353 13 14 4 3 7 0 358 352 359 345 342 333 321 331
173 162 167 170 179 180 174 172 164 162 161 130 115 108 109 86 54 51 20 25 20 7 14 29 17 7 351 7 5 9 26 3 8 2 358 5 360 348 346 347 339 331 320
165 160 165 172 179 178 177 174 174 166 168 143 137 147 137 96 51 26 8 18 354 7 6 20 12 358 342 11 12 51 15 357 359 3 5 352 0 359 350 348 344 339 340
159 159 163 172 176 176 178 178 178 170 169 164 155 177 152 107 31 3 17 347 356 352 353 23 18 14 347 8 17 26 25 5 5 359 358 5 344 345 352 349 349 343 343
162 162 166 171 173 178 178 180 178 174 172 183 173 186 149 178 283 331 347 339 350 336 335 359 7 329 344 6 11 9 3 2 353 338 342 357 332 344 351 355 358 354 347
160 161 170 171 175 180 184 181 179 178 178 192 179 179 196 221 271 288 311 314 333 326 324 344 353 335 336 357 7 354 7 349 341 344 334 334 328 333 349 348 359 351 340
156 160 167 170 174 179 182 180 177 180 181 184 178 204 219 232 239 276 289 306 311 311 315 330 323 319 314 352 20 18 3 6 336 339 329 314 314 337 347 345 341 341 340
152 159 170 172 172 178 179 179 178 177 184 187 190 204 199 178 172 172 16 7 6 344 312 294 278 278 314 351 0 10 14 343 330 336 334 318 338 343 338 335 336 343 336
152 157 166 166 172 176 180 179 180 183 187 177 192 189 168 167 159 108 47 11 339 285 308 285 279 284 282 285 302 338 357 335 338 344 341 337 335 339 332 332 327 333 337
149 157 160 168 177 180 184 178 186 189 184 182 180 182 172 175 195 203 325 318 319 300 308 299 297 286 300 294 276 313 335 337 337 351 326 328 325 326 333 338 346 341 330
152 155 159 177 185 179 180 184 190 186 179 179 179 187 195 221 214 316 300 295 286 295 304 301 303 313 308 307 267 315 323 335 339 337 326 320 323 326 323 336 337 342 335
153 158 167 193 203 185 179 182 183 179 170 185 188 198 217 247 267 278 289 305 312 304 308 327 343 341 337 350 357 333 328 329 330 327 329 323 326 331 341 342 353 334 331
159 161 180 200 204 188 177 172 181 170 169 189 196 213 233 247 261 276 293 315 317 315 317 306 301 300 309 326 327 324 321 323 315 312 318 335 338 349 352 348 349 336 333
164 168 174 178 201 175 162 177 167 162 180 192 207 228 236 251 273 276 280 276 284 293 314 315 310 293 312 316 326 329 336 332 334 334 331 341 352 2 350 347 344 335 332
167 168 180 200 215 161 171 171 161 170 182 195 214 232 265 283 278 294 305 309 309 303 312 314 302 291 300 327 331 334 340 345 344 349 351 3 3 353 353 345 347 333 332
Wind_Speed_850mb
30 28 26 25 24 23 22 22 19 21 25 26 26 26 18 21 18 18 34 22 36 26 22 22 18 21 21 24 30 38 23 30 31 31 28 31 5 20 14 22 30 30 26
34 30 27 25 22 21 20 18 15 19 26 27 27 26 21 17 12 21 19 25 20 27 33 29 26 18 17 28 26 25 26 22 35 41 17 18 9 39 24 27 22 17 20
37 32 29 25 22 20 16 14 15 20 27 29 28 23 14 11 16 19 23 26 27 31 31 21 19 23 12 19 20 24 27 23 22 31 31 18 19 32 19 36 35 31 26
38 35 31 26 23 20 16 11 12 18 25 31 28 21 14 15 17 14 22 22 32 28 19 13 21 18 19 22 23 20 20 25 28 23 27 23 23 24 27 34 31 32 34
40 36 32 28 24 20 15 9 11 19 26 28 30 22 20 17 16 23 26 19 19 22 21 14 19 23 19 25 30 28 34 23 17 32 28 31 23 25 27 31 38 37 35
45 38 33 32 26 20 16 11 9 16 22 21 24 25 22 21 26 29 31 30 27 22 21 22 28 29 23 24 28 26 34 33 33 20 21 26 30 34 36 36 38 42 41
50 45 44 35 29 24 17 10 7 10 16 14 19 18 21 20 24 31 39 37 34 29 27 36 33 32 26 27 26 18 25 23 31 33 23 40 24 32 30 37 43 45 40
48 47 46 35 30 26 17 11 7 9 11 2 12 17 15 19 24 35 38 35 35 40 34 30 30 25 27 28 24 30 28 30 27 39 28 37 21 33 30 30 36 43 43
46 43 44 37 35 27 19 14 9 9 10 8 12 19 18 27 35 33 28 25 24 24 25 24 23 26 33 25 26 31 31 30 27 29 32 32 29 31 36 29 37 36 37
41 40 43 38 38 28 24 17 14 12 11 4 11 15 18 21 23 22 18 22 21 20 19 19 21 22 23 26 25 19 28 29 29 30 31 29 30 28 37 32 42 35 38
45 44 42 38 30 28 21 16 12 12 9 5 11 15 14 11 14 17 18 21 23 23 20 20 19 22 24 23 23 25 24 27 26 29 31 28 27 32 38 38 37 38 44
43 48 42 40 32 29 24 19 16 13 13 6 12 15 15 11 13 15 15 17 19 23 21 19 20 17 12 13 11 17 24 27 28 27 28 37 37 32 40 38 37 38 44
41 52 45 41 34 31 25 18 15 15 13 11 14 12 10 6 7 8 8 10 15 18 23 18 18 18 21 22 16 12 19 25 26 32 34 31 28 37 44 47 45 42 43
47 50 48 39 36 33 26 19 18 16 14 15 13 10 7 4 5 7 8 9 8 14 17 17 15 13 24 25 27 13 22 24 34 27 28 31 31 39 46 56 48 36 43
45 48 47 41 38 32 28 21 19 18 17 15 15 11 9 5 3 5 7 8 9 9 13 11 12 13 21 28 27 16 16 20 25 24 28 32 21 47 53 58 45 34 46
42 45 41 42 39 35 28 24 21 19 18 16 13 10 8 4 3 5 7 7 7 11 9 8 9 8 19 25 25 18 16 18 26 25 26 29 30 44 59 52 43 32 41
44 46 42 43 39 34 29 26 22 20 20 16 15 7 7 7 5 3 8 7 5 6 8 7 7 11 22 30 26 11 20 24 29 31 30 28 30 41 57 58 48 30 39
43 44 41 41 37 33 28 24 22 21 21 18 15 11 8 7 5 2 6 4 4 6 9 5 6 7 17 24 30 26 21 24 34 30 38 27 34 41 57 61 59 56 47
41 41 40 40 36 33 28 24 22 22 21 20 15 10 8 7 5 3 2 3 4 8 5 10 10 15 15 16 20 31 28 22 34 30 35 28 35 49 56 63 64 59 54
38 42 40 39 37 32 29 26 23 25 23 19 15 11 11 9 6 4 3 7 8 9 8 20 17 26 27 24 24 23 34 21 36 38 44 30 41 62 65 55 59 60 64
41 40 39 38 33 30 26 25 25 26 25 16 15 14 11 10 6 1 5 10 12 16 20 25 28 35 36 31 34 23 33 25 36 53 36 46 46 65 52 53 52 55 50
41 37 38 35 32 25 23 25 28 30 26 18 17 14 11 7 10 3 12 14 23 29 34 41 39 39 38 31 29 28 31 33 41 45 40 42 58 59 54 31 53 39 44
38 34 33 30 26 24 22 27 30 30 25 20 17 13 9 8 9 13 19 22 25 33 36 33 30 33 32 38 24 31 40 45 50 38 42 55 54 43 33 38 44 48 57
36 32 28 26 28 22 26 29 27 33 20 19 16 12 11 10 12 15 11 21 18 23 22 28 30 28 27 26 34 47 50 46 39 46 53 44 50 27 29 44 42 45 46
31 30 28 29 22 26 31 28 34 27 20 18 14 12 14 15 12 15 12 19 21 24 29 30 25 23 23 27 37 44 46 47 45 49 40 38 40 34 48 49 48 38 42
31 29 27 26 14 31 27 30 29 21 22 16 13 13 13 11 20 19 20 26 31 28 33 33 28 21 21 29 38 41 44 40 29 34 38 35 40 44 47 48 52 33 47
Wind_Direction_850mb
153 147 140 131 125 127 122 113 94 59 40 28 16 8 13 349 336 347 331 338 346 352 350 323 324 325 348 330 320 333 336 9 330 328 318 9 79 81 19 356 357 346 350
159 157 151 142 134 132 127 117 79 47 31 25 10 15 23 2 355 334 343 320 323 327 328 331 343 340 349 352 348 1 11 11 13 3 2 342 14 61 47 50 53 24 12
170 167 162 154 142 133 129 110 64 29 23 23 6 23 35 18 349 4 315 330 322 325 340 1 16 28 6 7 16 9 22 14 26 29 25 4 4 345 356 24 22 7 353
174 174 170 163 156 143 132 108 58 40 18 12 10 20 32 15 355 337 328 341 342 341 352 17 20 16 16 27 18 12 27 21 23 31 34 27 20 16 342 354 356 9 2
176 178 175 171 164 152 141 103 46 28 20 15 356 11 28 22 6 10 14 346 7 10 11 14 40 29 24 27 28 33 28 21 12 25 28 15 15 10 6 351 355 353 349
170 176 179 168 167 164 143 113 43 26 24 24 348 26 41 41 33 33 34 31 38 39 55 43 41 40 45 42 37 33 28 26 25 43 23 6 10 7 0 351 350 350 347
168 174 168 169 172 168 154 131 105 46 26 38 352 52 52 41 42 47 48 43 47 49 51 53 47 41 31 38 24 49 33 41 14 25 43 26 20 5 360 358 350 344 341
178 175 171 172 177 168 163 147 117 65 48 106 13 62 59 50 65 54 51 45 44 49 46 44 38 30 24 51 28 50 47 39 28 21 32 27 14 15 6 358 348 342 340
172 172 167 175 176 167 167 160 135 87 90 20 26 73 70 74 69 57 48 37 34 35 28 31 32 25 28 57 48 30 37 35 33 15 17 21 6 11 8 349 354 4 346
168 174 168 172 169 163 166 166 138 118 128 75 78 85 64 46 42 50 46 34 37 33 31 31 30 28 27 24 29 21 21 15 13 11 8 4 3 360 352 360 352 342 349
172 172 167 169 165 166 170 161 140 132 129 85 92 99 80 71 71 54 48 40 28 28 29 25 29 26 16 21 14 13 5 6 7 5 1 359 349 346 335 334 341 343 338
172 167 169 170 173 178 171 165 162 152 156 129 115 91 87 73 61 54 42 33 26 16 27 27 28 14 3 348 353 13 14 4 3 7 0 358 352 359 345 342 333 321 331
173 162 167 170 179 180 174 172 164 162 161 130 115 108 109 86 54 51 20 25 20 7 14 29 17 7 351 7 5 9 26 3 8 2 358 5 360 348 346 347 339 331 320
165 160 165 172 179 178 177 174 174 166 168 143 137 147 137 96 51 26 8 18 354 7 6 20 12 358 342 11 12 51 15 357 359 3 5 352 0 359 350 348 344 339 340
159 159 163 172 176 176 178 178 178 170 169 164 155 177 152 107 31 3 17 347 356 352 353 23 18 14 347 8 17 26 25 5 5 359 358 5 344 345 352 349 349 343 343
162 162 166 171 173 178 178 180 178 174 172 183 173 186 149 178 283 331 347 339 350 336 335 359 7 329 344 6 11 9 3 2 353 338 342 357 332 344 351 355 358 354 347
160 161 170 171 175 180 184 181 179 178 178 192 179 179 196 221 271 288 311 314 333 326 324 344 353 335 336 357 7 354 7 349 341 344 334 334 328 333 349 348 359 351 340
156 160 167 170 174 179 182 180 177 180 181 184 178 204 219 232 239 276 289 306 311 311 315 330 323 319 314 352 20 18 3 6 336 339 329 314 314 337 347 345 341 341 340
152 159 170 172 172 178 179 179 178 177 184 187 190 204 199 178 172 172 16 7 6 344 312 294 278 278 314 351 0 10 14 343 330 336 334 318 338 343 338 335 336 343 336
152 157 166 166 172 176 180 179 180 183 187 177 192 189 168 167 159 108 47 11 339 285 308 285 279 284 282 285 302 338 357 335 338 344 341 337 335 339 332 332 327 333 337
149 157 160 168 177 180 184 178 186 189 184 182 180 182 172 175 195 203 325 318 319 300 308 299 297 286 300 294 276 313 335 337 337 351 326 328 325 326 333 338 346 341 330
152 155 159 177 185 179 180 184 190 186 179 179 179 187 195 221 214 316 300 295 286 295 304 301 303 313 308 307 267 315 323 335 339 337 326 320 323 326 323 336 337 342 335
153 158 167 193 203 185 179 182 183 179 170 185 188 198 217 247 267 278 289 305 312 304 308 327 343 341 337 350 357 333 328 329 330 327 329 323 326 331 341 342 353 334 331
159 161 180 200 204 188 177 172 181 170 169 189 196 213 233 247 261 276 293 315 317 315 317 306 301 300 309 326 327 324 321 323 315 312 318 335 338 349 352 348 349 336 333
164 168 174 178 201 175 162 177 167 162 180 192 207 228 236 251 273 276 280 276 284 293 314 315 310 293 312 316 326 329 336 332 334 334 331 341 352 2 350 347 344 335 332
167 168 180 200 215 161 171 171 161 170 182 195 214 232 265 283 278 294 305 309 309 303 312 314 302 291 300 327 331 334 340 345 344 349 351 3 3 353 353 345 347 333 332